Change the Weather History Date:

Saturday, August 3, 2013

  Actual Average Record
Temperature  
Mean Temperature 69 °F 73 °F  
Max Temperature 79 °F 84 °F 95 °F (2012)
Min Temperature 59 °F 62 °F 54 °F (2000)
Degree Days  
Heating Degree Days 0 0  
Month to date heating degree days 0 0  
Since 1 June heating degree days 73 38  
Since 1 July heating degree days 19 2  
Cooling Degree Days 4 8  
Month to date cooling degree days 16 24  
Year to date cooling degree days 451 526  
Since 1 June cooling degree days 374 480  
Growing Degree Days 18 (Base 50)    
Moisture  
Dew Point 55 °F    
Average Humidity 60    
Maximum Humidity 87    
Minimum Humidity 36    
Precipitation  
Precipitation 0.00 in 0.18 in 1.50 in (2010)
Month to date precipitation 0.13 0.53  
Year to date precipitation 25.27 21.56  
Sea Level Pressure  
Sea Level Pressure 30.04 in    
Wind  
Wind Speed 6 mph (North)    
Max Wind Speed 17 mph    
Max Gust Speed 21 mph    
Visibility 10 miles    
Events      
T = Trace of Precipitation, MM = Missing Value Source: NWS Daily Summary

Daily Weather History Graph

Daily Weather History Graph

Search for Another Location

Airport or City:

Trip Planner

Search our weather history database for the weather conditions in past years. The results will help you decide how hot, cold, wet, or windy it might be!

Date:

Astronomy

Aug. 03, 2013 Rise Set
Actual Time 5:48 AM CDT 8:08 PM CDT
Civil Twilight 5:17 AM CDT 8:39 PM CDT
Nautical Twilight 4:39 AM CDT 9:18 PM CDT
Astronomical Twilight 3:56 AM CDT 10:00 PM CDT
Moon 2:57 AM CDT (8/3) 5:51 PM CDT (8/3)
Length of Visible Light 15h 22m
Length of Day
14h 19m
Waning Crescent, 9% of the Moon is Illuminated
Aug 3
Waning Crescent
Aug 6
New
Aug 14
First Quarter
Aug 20
Full
Aug 28
Last Quarter

Hourly Weather History & Observations

Time (CDT) Temp. Dew Point Humidity Pressure Visibility Wind Dir Wind Speed Gust Speed Precip Events Conditions
12:52 AM 69.1 °F 60.1 °F 73% 29.95 in 10.0 mi North 5.8 mph - 0.00 in   Overcast
1:52 AM 68.0 °F 59.0 °F 73% 29.95 in 10.0 mi Calm Calm - N/A   Mostly Cloudy
2:52 AM 68.0 °F 59.0 °F 73% 29.97 in 10.0 mi Calm Calm - N/A   Overcast
3:52 AM 64.9 °F 57.9 °F 78% 29.97 in 10.0 mi North 4.6 mph - N/A   Overcast
4:52 AM 61.0 °F 55.0 °F 81% 29.98 in 10.0 mi North 5.8 mph - N/A   Clear
5:52 AM 59.0 °F 55.0 °F 87% 29.99 in 10.0 mi North 4.6 mph - N/A   Clear
6:52 AM 62.1 °F 57.0 °F 84% 30.01 in 10.0 mi North 5.8 mph - N/A   Clear
7:52 AM 66.9 °F 57.9 °F 73% 30.01 in 10.0 mi North 9.2 mph - N/A   Clear
8:52 AM 72.0 °F 57.9 °F 61% 30.03 in 10.0 mi North 6.9 mph - N/A   Clear
9:52 AM 73.9 °F 57.0 °F 55% 30.04 in 10.0 mi North 8.1 mph - N/A   Clear
10:52 AM 75.9 °F 54.0 °F 46% 30.06 in 10.0 mi NNE 8.1 mph - N/A   Clear
11:52 AM 77.0 °F 53.1 °F 43% 30.06 in 10.0 mi NNE 6.9 mph - N/A   Clear
12:52 PM 77.0 °F 52.0 °F 42% 30.06 in 10.0 mi NW 5.8 mph - N/A   Partly Cloudy
1:52 PM 78.1 °F 51.1 °F 39% 30.07 in 10.0 mi North 10.4 mph 18.4 mph N/A   Clear
2:52 PM 78.1 °F 48.9 °F 36% 30.07 in 10.0 mi NW 11.5 mph - N/A   Clear
3:52 PM 78.1 °F 51.1 °F 39% 30.06 in 10.0 mi NNW 9.2 mph 19.6 mph N/A   Clear
4:52 PM 77.0 °F 52.0 °F 42% 30.06 in 10.0 mi NNW 11.5 mph - N/A   Partly Cloudy
5:52 PM 77.0 °F 53.1 °F 43% 30.06 in 10.0 mi North 6.9 mph - N/A   Clear
6:52 PM 75.0 °F 52.0 °F 44% 30.06 in 10.0 mi NW 9.2 mph - N/A   Partly Cloudy
7:52 PM 71.1 °F 53.1 °F 53% 30.07 in 10.0 mi NW 6.9 mph - N/A   Partly Cloudy
8:52 PM 66.9 °F 55.0 °F 66% 30.08 in 10.0 mi ENE 3.5 mph - N/A   Mostly Cloudy
9:52 PM 69.1 °F 55.0 °F 61% 30.09 in 10.0 mi Calm Calm - N/A   Mostly Cloudy
10:52 PM 64.0 °F 55.9 °F 75% 30.11 in 10.0 mi Calm Calm - N/A   Partly Cloudy
11:52 PM 62.1 °F 55.0 °F 78% 30.12 in 10.0 mi Calm Calm - N/A   Clear